Location: Aero Crafter Incorporated Heliport
(33.1248°N, 96.5222°W)
Time: 10:44:51
(UTC+00:00)

CENTAUR R/B - Pass Details

Date: 18 November 2025
Orbit: 633 x 1547 km, 63.4° (Epoch: 07 December)

Event Time Altitude Azimuth Distance (km) Brightness Sun altitude
Exits shadow 12:00:19 - 329° (NNW) 4,159 5.4 -12.6°
Reaches altitude 10° 12:02:26 10° 329° (NNW) 3,481 4.9 -12.2°
Maximum altitude 12:11:20 86° 242° (WSW) 1,528 3.5 -10.4°
Drops below altitude 10° 12:20:51 10° 155° (SSE) 3,706 6.2 -8.5°
Sets 12:23:50 0° 154° (SSE) 4,652 6.7 -7.9°
